User: anonymous   Login
Location: Allie Creek
(37.5926°N, 89.8526°W)
Time: 11:37:24
(UTC+00:00)
Language:

Resurs 01 Rocket - Orbit

View from above orbital plane
View from above orbital plane
View from above satellite
View from above satellite

Ground track
Ground track

The orbit data is extracted from the following two-line orbital elements,

1 23343U 94074B   24056.90191375  .00000783  00000-0  11577-3 0  9993
2 23343  97.8047 103.4895 0008067 111.6369  61.2670 14.77871686577477
Epoch (UTC): 25 February 2024 21:38:45
Eccentricity: 0.0008067
inclination: 97.8047°
perigee height: 630 km
apogee height: 642 km
right ascension of ascending node: 103.4895°
argument of perigee: 111.6369°
revolutions per day: 14.77871686
mean anomaly at epoch: 61.2670°
orbit number at epoch: 57747

The dashed part of the orbit path shows where the satellite is in the earth's shadow,  

DLR